GW3620 Weather Reports


Display with metric or nautical units.
time (UTC)temp
F
wind
direction
speed
MPH
gust
MPH
rain 1hr
in
rain 24hr
in
rain mn
in
humidity
%
barometer
mb
20260509070033 75 0 0.0 0.0 0.00 0.00 0.00 23 1009.2
20260509065031 75 0 0.0 0.0 0.00 0.00 0.00 22 1009.2
20260509064033 75 62 0.0 1.0 0.00 0.00 0.00 22 1009.2
20260509063033 75 61 0.0 1.0 0.00 0.00 0.00 23 1009.6
20260509062050 75 0 0.0 0.0 0.00 0.00 0.00 22 1009.6
20260509061033 75 43 0.0 1.0 0.00 0.00 0.00 22 1009.5
20260509060033 76 52 0.0 1.0 0.00 0.00 0.00 22 1009.3
20260509055050 76 72 0.0 1.0 0.00 0.00 0.00 22 1009.3
20260509054031 76 74 0.0 1.0 0.00 0.00 0.00 22 1009.2
20260509053031 76 73 0.0 4.0 0.00 0.00 0.00 22 1009.6
20260509052033 76 62 0.0 3.0 0.00 0.00 0.00 22 1009.6
20260509051033 77 0 0.0 0.0 0.00 0.00 0.00 22 1009.4
20260509050050 77 73 0.0 1.0 0.00 0.00 0.00 22 1009.3
20260509045033 77 73 0.0 1.0 0.00 0.00 0.00 21 1009.3
20260509044033 77 74 0.0 1.0 0.00 0.00 0.00 21 1009.0
20260509043031 78 75 0.0 1.0 0.00 0.00 0.00 21 1009.2
20260509042033 78 80 0.0 3.0 0.00 0.00 0.00 21 1009.2
20260509041050 78 65 0.0 1.0 0.00 0.00 0.00 21 1009.3
20260509040033 79 0 0.0 0.0 0.00 0.00 0.00 20 1009.0
20260509035033 79 0 0.0 0.0 0.00 0.00 0.00 19 1009.0
20260509034033 80 0 0.0 0.0 0.00 0.00 0.00 19 1008.9
20260509033033 81 0 0.0 0.0 0.00 0.00 0.00 18 1009.0
20260509032033 81 314 0.0 1.0 0.00 0.00 0.00 18 1009.0
20260509031033 82 0 0.0 0.0 0.00 0.00 0.00 18 1008.7
20260509030033 83 0 0.0 0.0 0.00 0.00 0.00 17 1008.7
20260509025033 84 0 0.0 0.0 0.00 0.00 0.00 17 1008.7
20260509024050 85 314 0.0 1.0 0.00 0.00 0.00 16 1008.2
20260509023034 85 308 0.0 1.0 0.00 0.00 0.00 16 1007.8
20260509022050 86 319 0.0 1.0 0.00 0.00 0.00 15 1007.8
20260509021031 87 300 1.0 7.0 0.00 0.00 0.00 15 1007.8
20260509020033 87 307 2.0 7.0 0.00 0.00 0.00 15 1007.5
20260509015050 88 303 0.0 3.0 0.00 0.00 0.00 14 1007.5
20260509014033 89 302 5.0 12.0 0.00 0.00 0.00 14 1007.2
20260509013033 89 321 7.0 12.0 0.00 0.00 0.00 14 1008.3
20260509012033 90 323 2.0 12.0 0.00 0.00 0.00 14 1008.3
20260509011031 91 301 1.0 7.0 0.00 0.00 0.00 13 1008.2
20260509010033 91 307 4.0 13.0 0.00 0.00 0.00 13 1008.3
20260509005033 91 299 4.0 10.0 0.00 0.00 0.00 13 1008.3
20260509003033 91 305 6.0 15.0 0.00 0.00 0.00 13 1008.4
20260509002033 92 305 6.0 15.0 0.00 0.00 0.00 13 1008.4
20260509001033 92 323 3.0 12.0 0.00 0.00 0.00 13 1008.3
20260509000031 92 304 1.0 4.0 0.00 0.00 0.00 13 1008.4
20260508235031 92 305 6.0 12.0 0.00 0.00 0.00 13 1008.4
20260508234033 92 288 7.0 13.0 0.00 0.00 0.00 13 1008.5
20260508233033 92 307 5.0 15.0 0.00 0.00 0.00 13 1008.2
20260508232033 92 292 3.0 7.0 0.00 0.00 0.00 13 1008.2
20260508231033 92 302 4.0 7.0 0.00 0.00 0.00 13 1008.3
20260508230033 92 301 2.0 7.0 0.00 0.00 0.00 13 1008.4
20260508225031 92 287 7.0 15.0 0.00 0.00 0.00 13 1008.4
20260508224033 92 289 5.0 16.0 0.00 0.00 0.00 12 1008.7
20260508223033 93 312 1.0 12.0 0.00 0.00 0.00 13 1008.9
20260508222050 92 328 3.0 10.0 0.00 0.00 0.00 13 1008.9
20260508221050 92 43 1.0 10.0 0.00 0.00 0.00 14 1009.2
20260508220033 91 300 6.0 22.0 0.00 0.00 0.00 14 1009.3
20260508215033 91 312 2.0 10.0 0.00 0.00 0.00 15 1009.3
20260508214031 91 315 4.0 9.0 0.00 0.00 0.00 15 1009.4
20260508213033 91 299 4.0 15.0 0.00 0.00 0.00 15 1009.8
20260508212033 90 291 4.0 10.0 0.00 0.00 0.00 15 1009.8
20260508211033 90 307 9.0 18.0 0.00 0.00 0.00 15 1009.8
20260508210033 90 312 3.0 10.0 0.00 0.00 0.00 15 1010.1
20260508205033 90 290 2.0 7.0 0.00 0.00 0.00 16 1010.1
20260508204050 89 272 3.0 7.0 0.00 0.00 0.00 16 1010.4
20260508203031 89 292 6.0 12.0 0.00 0.00 0.00 16 1010.7
20260508202050 88 309 4.0 9.0 0.00 0.00 0.00 16 1010.7
20260508201033 88 302 6.0 15.0 0.00 0.00 0.00 16 1010.8
20260508200033 88 301 5.0 13.0 0.00 0.00 0.00 17 1011.0
20260508195033 87 299 4.0 10.0 0.00 0.00 0.00 17 1011.0
20260508194050 87 309 6.0 15.0 0.00 0.00 0.00 17 1011.1
20260508193107 87 321 5.0 13.0 0.00 0.00 0.00 17 1011.1
20260508192048 87 295 5.0 10.0 0.00 0.00 0.00 17 1011.1
20260508191033 86 283 4.0 13.0 0.00 0.00 0.00 18 1011.4
20260508190033 86 290 5.0 13.0 0.00 0.00 0.00 18 1011.6
20260508185033 86 83 1.0 13.0 0.00 0.00 0.00 19 1011.6
20260508184034 85 298 2.0 9.0 0.00 0.00 0.00 19 1011.8
20260508183033 85 281 2.0 7.0 0.00 0.00 0.00 19 1011.7
20260508182031 84 45 0.0 3.0 0.00 0.00 0.00 19 1011.7
20260508181033 83 36 0.0 1.0 0.00 0.00 0.00 19 1012.3
20260508180031 83 336 1.0 6.0 0.00 0.00 0.00 20 1012.4
20260508175033 83 284 1.0 6.0 0.00 0.00 0.00 20 1012.4
20260508174033 82 279 0.0 6.0 0.00 0.00 0.00 20 1012.4
20260508173033 81 283 1.0 6.0 0.00 0.00 0.00 20 1012.5
20260508172033 81 52 2.0 9.0 0.00 0.00 0.00 21 1012.5
20260508171031 80 79 2.0 7.0 0.00 0.00 0.00 21 1013.0
20260508170033 80 292 1.0 7.0 0.00 0.00 0.00 22 1013.1
20260508165033 79 41 1.0 6.0 0.00 0.00 0.00 23 1013.1
20260508164033 78 50 0.0 6.0 0.00 0.00 0.00 24 1013.1
20260508163033 78 56 0.0 4.0 0.00 0.00 0.00 24 1013.1
20260508162050 77 78 0.0 6.0 0.00 0.00 0.00 24 1013.1
20260508161033 76 85 0.0 3.0 0.00 0.00 0.00 25 1013.1
20260508160031 75 274 1.0 6.0 0.00 0.00 0.00 26 1013.4
20260508155033 75 81 1.0 3.0 0.00 0.00 0.00 27 1013.4
20260508154033 74 49 1.0 6.0 0.00 0.00 0.00 28 1013.6
20260508153033 72 74 1.0 4.0 0.00 0.00 0.00 29 1013.2
20260508152033 72 280 1.0 6.0 0.00 0.00 0.00 30 1013.2
20260508151033 72 285 1.0 3.0 0.00 0.00 0.00 30 1013.2
20260508150050 71 273 0.0 3.0 0.00 0.00 0.00 31 1013.1
20260508145048 71 33 0.0 3.0 0.00 0.00 0.00 32 1013.1
20260508144033 71 0 0.0 0.0 0.00 0.00 0.00 32 1013.0
20260508143033 71 0 0.0 0.0 0.00 0.00 0.00 31 1012.4
20260508142033 70 0 0.0 0.0 0.00 0.00 0.00 32 1012.4
20260508141033 69 0 0.0 0.0 0.00 0.00 0.00 34 1012.7
20260508140033 66 0 0.0 0.0 0.00 0.00 0.00 37 1012.8
20260508135031 64 0 0.0 0.0 0.00 0.00 0.00 40 1012.8
20260508134031 62 0 0.0 0.0 0.00 0.00 0.00 42 1013.1
20260508133033 60 0 0.0 0.0 0.00 0.00 0.00 46 1012.9
20260508132033 59 20 0.0 1.0 0.00 0.00 0.00 50 1012.9
20260508131033 58 0 0.0 0.0 0.00 0.00 0.00 50 1012.9
20260508130033 58 0 0.0 0.0 0.00 0.00 0.00 49 1012.6
20260508125033 58 0 0.0 0.0 0.00 0.00 0.00 49 1012.6
20260508124031 58 0 0.0 0.0 0.00 0.00 0.00 48 1012.6
20260508123031 58 0 0.0 0.0 0.00 0.00 0.00 48 1012.2
20260508122033 59 0 0.0 0.0 0.00 0.00 0.00 46 1012.2
20260508121033 59 0 0.0 0.0 0.00 0.00 0.00 43 1012.0
20260508120033 60 0 0.0 0.0 0.00 0.00 0.00 42 1011.7
20260508115033 61 0 0.0 0.0 0.00 0.00 0.00 42 1011.7
20260508114033 62 0 0.0 0.0 0.00 0.00 0.00 39 1011.6
20260508113031 62 0 0.0 0.0 0.00 0.00 0.00 37 1011.5
20260508112033 62 0 0.0 0.0 0.00 0.00 0.00 37 1011.5
20260508111050 62 358 0.0 1.0 0.00 0.00 0.00 37 1011.5
20260508110050 62 0 0.0 0.0 0.00 0.00 0.00 37 1011.5
20260508105033 62 336 0.0 1.0 0.00 0.00 0.00 38 1011.5
20260508104033 61 331 0.0 1.0 0.00 0.00 0.00 39 1011.5
20260508103033 61 308 0.0 1.0 0.00 0.00 0.00 40 1011.5
20260508102048 61 0 0.0 0.0 0.00 0.00 0.00 40 1011.5
20260508101033 61 0 0.0 0.0 0.00 0.00 0.00 39 1011.4
20260508100033 61 0 0.0 0.0 0.00 0.00 0.00 39 1011.4
20260508095033 62 0 0.0 0.0 0.00 0.00 0.00 39 1011.4
20260508094033 62 0 0.0 0.0 0.00 0.00 0.00 38 1011.4
20260508093033 63 0 0.0 0.0 0.00 0.00 0.00 37 1011.5
20260508092033 63 71 0.0 1.0 0.00 0.00 0.00 35 1011.5
20260508091031 63 61 0.0 1.0 0.00 0.00 0.00 36 1011.5
20260508090105 63 0 0.0 0.0 0.00 0.00 0.00 35 1011.5
20260508085033 63 0 0.0 0.0 0.00 0.00 0.00 35 1011.5
20260508084033 63 0 0.0 0.0 0.00 0.00 0.00 36 1011.5
20260508083033 64 0 0.0 0.0 0.00 0.00 0.00 36 1012.0
20260508082033 64 61 0.0 1.0 0.00 0.00 0.00 36 1012.0
20260508081033 64 0 0.0 0.0 0.00 0.00 0.00 36 1011.9
20260508080031 64 0 0.0 0.0 0.00 0.00 0.00 35 1012.0
20260508075033 65 0 0.0 0.0 0.00 0.00 0.00 34 1012.0
20260508074050 65 61 0.0 1.0 0.00 0.00 0.00 34 1012.1
20260508073033 65 0 0.0 0.0 0.00 0.00 0.00 34 1012.1
20260508072033 65 0 0.0 0.0 0.00 0.00 0.00 34 1012.1